Location: Oakhurst
(33.6448°N, 111.9543°W)
Time: 03:26:26
(UTC+00:00)

Max Valier Satellite - Pass Details

Date: 30 July 2021
Orbit: 486 x 502 km, 97.2° (Epoch: 24 September)

Event Time Altitude Azimuth Distance (km) Brightness Sun altitude
Exits shadow 03:00:50 - 123° (ESE) 1,800 ? -6.6°
Reaches altitude 10° 03:01:15 10° 119° (ESE) 1,665 ? -6.7°
Maximum altitude 03:03:52 20° 72° (ENE) 1,193 ? -7.2°
Drops below altitude 10° 03:06:31 10° 24° (NNE) 1,676 ? -7.7°
Sets 03:08:59 0° 7° (N) 2,564 ? -8.1°
